Home   Weather   Detroit   Past weeks
Flag for USA

Past Weather in Detroit, Michigan, USA — Yesterday and Last 2 Weeks

Now
54 °F

Overcast.


Feels Like: 50 °F
Forecast: 56 / 49 °F
Wind: 13 mph from Northwest

Location: Detroit City Airport

Current Time: May 20, 2019 at 5:15:46 pm

Latest Report: May 20, 2019 at 3:53 pm


Visibility: 10 mi

Pressure: 29.98 "Hg

Humidity: 57%

Dew Point: 39 °F

Location of DetroitLocation

Past Weather in Detroit — Graph

°F

Detroit Temperature Yesterday

Maximum temperature yesterday: 78 °F (at 1:53 pm)
Minimum temperature yesterday: 53 °F (at 3:53 am)
Average temperature yesterday: 64 °F

High & Low Weather Summary for the Past Weeks

 TemperatureHumidityPressure
High78 °F (May 19, 1:53 pm)97% (May 13, 12:53 am)30.32 "Hg (May 13, 12:53 am)
Low39 °F (May 11, 5:53 am)27% (May 14, 6:53 pm)29.68 "Hg (May 19, 2:53 pm)
Average55 °F68%29.93 "Hg
* Reported May 5 3:53 pm — May 20 3:53 pm, Detroit. Weather by CustomWeather, © 2019

Note: Actual official high and low records may vary slightly from our data, if they occured in-between our weather recording intervals... More about our weather records

Advertising

Detroit Weather History for the Previous 24 Hours

Scroll right to see more
 ConditionsComfort  
Time TempWeatherWind HumidityBarometerVisibility
3:53 pm
Mon, May 20
54 °FOvercast.13 mph57%29.98 "Hg10 mi
2:53 pm56 °FOvercast.14 mph55%29.95 "Hg10 mi
1:53 pm56 °FOvercast.15 mph55%29.93 "Hg10 mi
12:53 pm56 °FOvercast.21 mph58%29.91 "Hg10 mi
12:19 pm56 °FMore clouds than sun.18 mph60%29.91 "Hg10 mi
11:53 am55 °FMostly cloudy.15 mph67%29.90 "Hg10 mi
10:53 am55 °FCloudy.15 mph69%29.88 "Hg10 mi
9:53 am54 °FOvercast.14 mph72%29.85 "Hg10 mi
9:13 am56 °FMore clouds than sun.16 mph70%29.84 "Hg10 mi
8:53 am56 °FOvercast.15 mph67%29.83 "Hg10 mi
7:53 am57 °FScattered clouds.15 mph69%29.81 "Hg10 mi
6:53 am57 °FMore clouds than sun.9 mph72%29.79 "Hg10 mi
6:30 am57 °FMostly cloudy.14 mph72%29.78 "Hg10 mi
6:08 am58 °FCloudy.10 mph78%29.77 "Hg10 mi
5:53 am58 °FPassing clouds.13 mph81%29.77 "Hg10 mi
4:53 am60 °FPassing clouds.14 mph78%29.75 "Hg10 mi
3:53 am61 °FClear.8 mph75%29.74 "Hg10 mi
2:53 am62 °FClear.8 mph75%29.71 "Hg10 mi
1:53 am63 °FClear.10 mph87%29.71 "Hg10 mi
12:53 am62 °FPassing clouds.9 mph90%29.70 "Hg8 mi
11:53 pm
Sun, May 19
62 °FPassing clouds.5 mph86%29.70 "Hg10 mi
10:53 pm62 °FPassing clouds.8 mph90%29.71 "Hg10 mi
10:29 pm62 °FPassing clouds.8 mph86%29.72 "Hg10 mi
10:14 pm61 °FPassing clouds.8 mph87%29.71 "Hg10 mi
9:53 pm61 °FPassing clouds.8 mph87%29.70 "Hg10 mi
8:53 pm61 °FClear.10 mph81%29.69 "Hg10 mi
7:53 pm63 °FPartly sunny.12 mph81%29.71 "Hg10 mi
6:53 pm64 °FScattered clouds.16 mph90%29.70 "Hg10 mi
6:44 pm64 °FPartly sunny.14 mph94%29.70 "Hg10 mi
6:29 pm64 °FPartly sunny.14 mph94%29.71 "Hg10 mi
5:53 pm64 °FLight rain. Overcast.6 mph90%29.74 "Hg8 mi
Weather by CustomWeather, © 2019

See weather overview